STARLINK-5328, 55657

Orbit data source: Space-Track

STARLINK-5328, 55657 is a payload satellite owned by SpaceX/Seattle (US) in LEO that was launched on Fri, 17 Feb 2023 UTC via an FALCON 9 launch vehicle from the Air Force Western Test Range (AFWTR). Payload-class satellites include a variety of spacecraft equipped with specific instruments for various scientific and technological missions. These include communications satellites like Starlink; space stations such as the ISS; scientific satellites like the Hubble; Earth observation satellites from companies like Planet Labs, Umbra, and HawkEye 360; GPS; miniature CubeSats for education and research; and military/defense satellites.

Loading next visibility...
Identifier
55657, 2023-021AF
Orbit
LEO
Country
Flag of USUS
Related business
Manufacturer
SpaceX/Seattle
Mission
Operational Commercial Communications
Bus & Motor
STARLINK, Unknown motor
Mass
305 kg wet, ~290 kg dry
Launch date (UTC)
2023-02-17 (3 years ago)
Launch vehicle
FALCON 9
Launch site
Air Force Western Test Range (AFWTR)
Object type
Payload
Rocket body
Debris
Shape & HBR
Box + 1 Pan, 10.1 m
Radar Cross Section
13.562 m², Large (>1 m²)

Expand to show TLE details & history
Last TLE update: 2 days ago

TLE from 2 days ago
0 STARLINK-5328
1 55657U 23021AF  26171.45394118  .00005375  00000-0  45737-3 0  9997
2 55657  69.9995 265.5073 0003014 264.5880  95.4935 14.98377483184671
Epoch: 2026-06-20T10:53Z
TLE epoch observation values (Epoch: 2026-06-20T10:53:40.517Z)
Latitude
-0.00008°
Longitude
-166.57989°
Altitude
574.534 km
Speed
7.574 km/s
True Right ascension
17h 42m 01s
True Declination
0° 00' 00"
Sunlit
Object was in full shadow at epoch
Visualization orbit readout
Latitude
Unknown
Longitude
Unknown
Altitude
Unknown
Speed
Unknown
Apparent Right ascension
Unknown
Apparent Declination
Unknown
Sunlit
N/A
Visualization observer readout
Local Sidereal Time
21:37:35
Azimuth
Unknown
Elevation
Unknown
Doppler factor
Unknown
Orbital elements
Apogee altitude
571.951 km
Perigee altitude
567.763 km
Semi-major axis
6,947.994 km
Eccentricity
0.0003
Inclination
69.9995°
RAAN
265.5073°
Arg. of periapsis
264.588°
True anomaly
95.52788°
Mean anomaly
95.4935°
Eccentric anomaly
95.51069°
Mean motion
3.74761 °/min
Orbital period
96.06 mins
BSTAR
0.00045737
Loading maneuver chart data...
Computing Atmospheric mass density...

Documentation

Showing up to 5 results
|